Flag for Germany Weather past 2 weeks in Porta Westfalica, North Rhine-Westphalia, Germany

Now
81 °F

Partly sunny.


Feels Like: 82 °F
Forecast: 58 / 66 °F
Wind: 3 mph from Northeast

Location: Bueckeburg

Current Time: Jul 7, 2015 at 5:59:34 PM

Latest Report: Jul 7, 2015 at 5:20 PM


Visibility: N/A

Pressure: 29.71 "Hg

Humidity: 54%

Dew point: 63 °F

Location of Porta WestfalicaLocation

Historic Weather in Porta Westfalica — Graph

°F

Porta Westfalica temperature yesterday

Maximum temperature yesterday: 73 °F (at 2:20 PM)
Minimum temperature yesterday: 59 °F (at 5:20 AM)
Average temperature yesterday: 67 °F

Past Weeks' High & Low Weather Summary

 TemperatureHumidityPressure
High97 °F (Jul 4, 3:20 PM)100% (Jun 22, 11:20 PM)30.27 "Hg (Jun 22, 11:20 PM)
Low48 °F (Jun 22, 11:20 PM)34% (Jul 2, 5:20 PM)29.65 "Hg (Jun 22, 9:20 PM)
Average68 °F68%30.07 "Hg
* Reported Jun 22 4:20 PM — Jul 7 4:20 PM, Porta Westfalica, Weather by CustomWeather, © 2015

Note: Actual official high and low records may vary slightly from our data, if they occured in-between our weather recording intervals... More about our weather records

Advertising

Porta Westfalica weather history for previous 24 hours

 ConditionsComfort  
Time TempWeatherWind HumidityBarometerVisibility
4:20 PM
Tue, Jul 7
84 °FBroken clouds.2 mph40%29.74 "HgN/A
3:20 PM84 °FPartly sunny.6 mph43%29.77 "HgN/A
2:20 PM82 °FBroken clouds.5 mph42%29.80 "HgN/A
1:20 PM82 °FPartly sunny.7 mph42%29.83 "HgN/A
12:20 PM81 °FPassing clouds.8 mph45%29.86 "HgN/A
11:20 AM77 °FPassing clouds.6 mph51%29.89 "HgN/A
10:20 AM75 °FPassing clouds.8 mph54%29.89 "HgN/A
9:20 AM72 °FPassing clouds.7 mph57%29.92 "HgN/A
8:20 AM70 °FMild.9 mph57%29.95 "HgN/A
7:20 AM66 °FMild.6 mph64%29.98 "HgN/A
6:20 AM57 °FCool.1 mph88%29.98 "HgN/A
5:20 AM57 °FCool.2 mph82%29.98 "Hg4 mi
4:20 AM57 °FCool.1 mph88%30.01 "Hg3 mi
3:20 AM59 °FCool.2 mph82%30.01 "Hg3 mi
2:20 AM59 °FCool.2 mph82%30.04 "Hg4 mi
1:20 AM59 °FCool.5 mph82%30.04 "Hg3 mi
12:20 AM61 °FCool.5 mph77%30.07 "Hg4 mi
11:20 PM
Mon, Jul 6
61 °FCool.5 mph77%30.07 "Hg4 mi
10:20 PM64 °FMild.5 mph73%30.07 "Hg4 mi
9:20 PM68 °FMild.3 mph69%30.07 "Hg4 mi
8:20 PM72 °FMild.6 mph50%30.09 "Hg3 mi
7:20 PM73 °FPassing clouds.7 mph47%30.09 "HgN/A
6:52 PM73 °FPassing clouds.8 mph47%30.09 "HgN/A
6:20 PM73 °FPassing clouds.8 mph47%30.09 "HgN/A
5:20 PM73 °FPassing clouds.10 mph47%30.12 "HgN/A
Weather by CustomWeather, © 2015

See weather overviewHow to use our weather pages